Regional Weather Roundup
Issued by NWS

Home | Current Version | Previous Version | Graphics & Text | Print | Product List | Glossary On
Versions: 1 2 3 4 5 6 7 8 9 10 11 12 13 14 15 16 17 18 19 20 21 22 23 24 25 26 27 28 29 30 31 32 33 34 35 36 37 38 39 40 41 42 43 44 45 46 47 48 49 50
372
ASUS45 KPSR 302110
RWRAZ

ARIZONA HOURLY REGIONAL WEATHER ROUNDUP
NATIONAL WEATHER SERVICE PHOENIX AZ
200 PM MST SAT JUL 30 2016

NOTE: FAIR INDICATES FEW OR NO CLOUDS BELOW 12,000 FEET WITH NO
SIGNIFICANT WEATHER AND/OR OBSTRUCTIONS TO VISIBILITY.

AZZ001>003-036-302200-
NORTHWEST ARIZONA

CITY           SKY/WX    TMP DP  RH WIND       PRES   REMARKS
BULLHEAD CITY  MOSUNNY  100  63  28 S21G29    29.78R HX 102
KINGMAN        CLOUDY    91  57  31 SW17      30.00F
$$

AZZ004>008-015-016-018-302200-
NORTH CENTRAL ARIZONA

CITY           SKY/WX    TMP DP  RH WIND       PRES   REMARKS
GRAND CANYON   PTSUNNY   87  43  21 VRB6G18   30.21F
WILLIAMS       MOSUNNY   86  43  22 VRB7G21   30.30S
PRESCOTT       MOSUNNY   91  48  22 W8G20     30.10F
FLAGSTAFF      PTSUNNY   79  47  32 E8        30.24F
PAYSON         MOSUNNY   86  54  32 VRB7G15   30.13F
PAGE           MOSUNNY   98  42  14 NW7       29.95F
$$

AZZ009>014-017-302200-
NORTHEAST ARIZONA

CITY           SKY/WX    TMP DP  RH WIND       PRES   REMARKS
WINSLOW        CLOUDY    94  46  19 SW26G35   30.05S
SAINT JOHNS    MOSUNNY   94  42  16 W9        30.09F
WINDOW ROCK    MOSUNNY   92  41  17 VRB7G16   30.15F
SHOW LOW       MOSUNNY   82  41  23 SW10G16   30.19F
$$

AZZ023-302200-
GREATER PHOENIX AREA

CITY           SKY/WX    TMP DP  RH WIND       PRES   REMARKS
PHOENIX        MOSUNNY   97  64  33 E3        29.82F
BUCKEYE        SUNNY     97  64  34 S12       29.85F
GLENDALE       MOSUNNY   99  63  30 SW7       29.85F HX 100
LUKE AFB       SUNNY     99  62  29 SW12      29.82F
DEER VALLEY    SUNNY     98  61  29 MISG      29.84F
SCOTTSDALE     SUNNY     98  60  28 S8        29.86F
MESA-FALCON    MOSUNNY  N/A N/A N/A S9        29.82F
MESA-GATEWAY   MOSUNNY   95  64  36 SW15      29.86F
CHANDLER       PTSUNNY  N/A N/A N/A W7        29.83F
$$

AZZ027-028-302200-
SOUTHWEST MARICOPA COUNTY AND PINAL COUNTY

CITY           SKY/WX    TMP DP  RH WIND       PRES   REMARKS
CASA GRANDE    SUNNY     93  63  36 W8        29.88F
GILA BEND      FAIR      95  63  34 W9        29.84F
$$

AZZ503-504-507>509-302200-
SOUTHEAST ARIZONA

CITY           SKY/WX    TMP DP  RH WIND       PRES   REMARKS
TUCSON         MOSUNNY   94  64  37 CALM      29.95F
DAVIS-MONTHAN  MOSUNNY   91  63  38 VRB7      29.94F
RYAN FIELD     SUNNY     91  63  38 NW3       29.95F
NOGALES        PTSUNNY   90  63  40 MISG      30.03F
SIERRA VISTA   MOSUNNY   89  53  29 E3        30.09F
DOUGLAS        MOSUNNY   88  58  36 CALM      30.03F
SAFFORD        MOSUNNY   97  51  21 S8        29.92F
$$

AZZ020-021-025-026-031-302200-
SOUTHWEST ARIZONA

CITY           SKY/WX    TMP DP  RH WIND       PRES   REMARKS
YUMA           SUNNY     97  68  38 S16       29.80F HX 102
$$

CAZ031-033-041-043-047-048-061-302200-
SOUTHERN CALIFORNIA

CITY           SKY/WX    TMP DP  RH WIND       PRES   REMARKS
DOWNTOWN L.A.  SUNNY     84  67  56 VRB5      29.83F
L.A. AIRPORT   MOSUNNY   77  66  68 W12       29.85F
SAN DIEGO      MOSUNNY   76  64  66 VRB5      29.88F
BURBANK        SUNNY     87  66  49 S7        29.85F HAZE
ONTARIO        PTSUNNY   93  65  39 W15       29.84F
RIVERSIDE      MOSUNNY   93  63  36 W14G21    29.82F HAZE
PALM SPRINGS   CLOUDY   101  70  36 E21       29.78R BLWGDUSTHX 108
EL CENTRO NAS  MOSUNNY  100  68  35 S12       29.77F HX 105
IMPERIAL       MOSUNNY  103  72  36 SE15G24   29.76F HX 113
BLYTHE         PTSUNNY   95  70  44 S14       29.82F HX 101
NEEDLES        PTSUNNY  103  62  26 S13G24    29.81F HX 105
$$

NVZ020-UTZ003-302200-
SOUTHERN NEVADA-UTAH

CITY           SKY/WX    TMP DP  RH WIND       PRES   REMARKS
LAS VEGAS      MOSUNNY  106  46  13 SW7       29.77F HAZE    HX 102
SALT LAKE CITY PTSUNNY   88  47  24 S30G40    29.97R THUNDER
$$

NMZ009-TXZ055-302200-
NEW MEXICO-WEST TEXAS

CITY           SKY/WX    TMP DP  RH WIND       PRES   REMARKS
ALBUQUERQUE    MOSUNNY   89  46  22 SW9       30.08F
EL PASO        MOSUNNY   93  57  29 SW10      30.00F
$$


........................KEY........................
SKY/WX - SKY CONDITION/WEATHER
TMP    - TEMPERATURE IN FAHRENHEIT
DP     - DEW POINT IN FAHRENHEIT
RH     - RELATIVE HUMIDITY IN PERCENT
WIND   - DIRECTION AND SPEED IN MILES PER HOUR (MPH)
VRB    - VARIABLE WIND DIRECTION
PRES   - MEAN SEA LEVEL PRESSURE IN INCHES OF MERCURY
         F - FALLING PRESSURE   R - RISING PRESSURE
         S - STEADY PRESSURE
VSB    - VISIBILITY IN MILES
HX     - HEAT INDEX IN FAHRENHEIT
WCI    - WIND CHILL INDEX IN FAHRENHEIT
TC     - TEMPERATURE IN CELSIUS WHICH IS ALSO KNOWN AS
         TEMPERATURE IN CENTIGRADE
AFB    - AIR FORCE BASE
         LUKE AFB IS LUKE AIR FORCE BASE
         DAVIS-MONTHAN IS DAVIS-MONTHAN AIR FORCE BASE
NAS    - NAVAL AIR STATION
         EL CENTRO NAS IS EL CENTRO NAVAL AIR STATION
N/A    - NOT AVAILABLE





USA.gov is the U.S. government's official web portal to all federal, state and local government web resources and services.